Погода в Иголе

Россия / Томская область     57°44′33″N   76°24′38″E
темп.,
°C
ветер,
м/с
пор.,
м/с
влажн.,
%
обл.,
%
осадки,
мм/ч
давл.,
гПа
погр.,
м
21 апреля, ср
ср2101:000сз5109697 4.0 1015952
04:00−4ссз4119393 0.3 1017574
07:00−4ссз4993100 0.4 1020911
10:00−2с5887100 0.2 10221112
13:00−2ссв5779100 0.3 10251231
16:00−1ссв5875100 0.1 10281480
19:00−1ссв477990 0.3 10321327
22:00−8с22955 0.1 103629
22 апреля, чт
чт2201:00−10ссв24955 0.1 103856
04:00−13св229756 0.0 104030
07:00−14св119860 0.0 104313
10:00−2всв12815 0.0 1044280
13:00+1юв11775 0.0 1045849
16:00+3юв127263 0.0 1045991
19:00+2юв2281100 0.0 1045366
22:00−4ююв25925 0.0 104763
23 апреля, пт
пт2301:00−6ююв26935 0.0 104781
04:00−6ю28935 0.0 1047120
07:00−5ююв27945 0.0 1047124
10:00+1ю36795 0.0 1047392
13:00+4ю35685 0.0 10461064
16:00+6ю34615 0.0 10441350
19:00+5ююв35735 0.0 1043374
22:00−1юв27915 0.0 1043109
24 апреля, сб
сб2401:00−2ююв28920 0.0 1043133
04:00−3ююв29910 0.0 1041148
07:00−3ю27930 0.0 1041128
10:00+4ююз24725 0.0 1040368
13:00+7ю336060 0.0 10381055
16:00+8ююз23575 0.0 10361343
19:00+7ю237139 0.0 1035151
22:00−1ююв229320 0.0 103526
25 апреля, вс
вс2501:00−1ю249284 0.0 103463
04:00−2ююв2592100 0.0 103382
07:00−1ю2490100 0.0 103387
10:00+5ююз3571100 0.0 1032272
13:00+8ю3559100 0.0 1031945
16:00+9ю3554100 0.0 10291379
19:00+8ююв3664100 0.0 1028364
22:00+4ююв3577100 0.0 102889